Marshfield, WI

5:28 AM CST on February 20, 2017 (GMT -0600)
Marshfield Municipal

Weather History for KMFI - January, 2014

Change the Weather History Date:

Sunday, January 26, 2014

  Actual Average Record
Temperature  
Mean Temperature 5 °F -  
Max Temperature 12 °F 22 °F 51 °F (1944)
Min Temperature -2 °F 2 °F -26 °F (1927)
Degree Days  
Heating Degree Days 60    
Moisture  
Dew Point -2 °F    
Average Humidity 76    
Maximum Humidity 84    
Minimum Humidity 66    
Precipitation  
Precipitation 0.01 in - - ()
Sea Level Pressure  
Sea Level Pressure 29.50 in    
Wind  
Wind Speed 11 mph (West)    
Max Wind Speed 28 mph    
Max Gust Speed 38 mph    
Averages and records for this station are not official NWS values.
T = Trace of Precipitation, MM = Missing Value Source: NWS Daily Summary

Daily Weather History Graph

Daily Weather History Graph

Search for Another Location

Airport or City:

Trip Planner

Search our weather history database for the weather conditions in past years. The results will help you decide how hot, cold, wet, or windy it might be!

Date:

Astronomy

Jan. 26, 2014 Rise Set
Actual Time 7:25 AM CST 5:01 PM CST
Civil Twilight 6:54 AM CST 5:32 PM CST
Nautical Twilight 6:19 AM CST 6:08 PM CST
Astronomical Twilight 5:44 AM CST 6:42 PM CST
Moon 3:04 AM CST (1/26) 12:49 PM CST (1/26)
Length of Visible Light 10h 38m
Length of Day
9h 35m
Waning Crescent, 23% of the Moon is Illuminated
Jan 26
Waning Crescent
Jan 30
New
Feb 6
First Quarter
Feb 14
Full
Feb 22
Last Quarter

Hourly Weather History & Observations

Time (CST) Temp. Windchill Dew Point Humidity Pressure Visibility Wind Dir Wind Speed Gust Speed Precip Events Conditions
12:54 AM 1.0 °F -8.7 °F -8.0 °F 66% 29.65 in - South 4.6 mph - N/A   Overcast
1:54 AM 1.0 °F -12.9 °F -6.0 °F 72% 29.62 in - South 8.1 mph - 0.00 in Snow Light Snow
2:14 AM 1.0 °F -11.7 °F -5.1 °F 75% 29.52 in - South 6.9 mph - 0.00 in Snow Snow
2:54 AM 1.0 °F -8.7 °F -4.0 °F 79% 29.60 in - ESE 4.6 mph - 0.00 in Snow Snow
3:12 AM 1.0 °F -10.3 °F -4.0 °F 79% 29.49 in - ESE 5.8 mph - 0.00 in Snow Snow
3:27 AM 1.0 °F -11.7 °F -4.0 °F 79% 29.47 in - ESE 6.9 mph - 0.00 in Snow Light Snow
3:54 AM 1.0 °F -11.7 °F -4.0 °F 79% 29.55 in - East 6.9 mph - 0.00 in Snow Light Snow
4:41 AM 1.0 °F -14.9 °F -4.0 °F 79% 29.41 in - ESE 10.4 mph - 0.00 in Snow Light Snow
4:54 AM 1.0 °F -11.7 °F -4.0 °F 79% 29.52 in - ESE 6.9 mph - 0.00 in Snow Light Snow
5:18 AM 1.0 °F -14.9 °F -4.0 °F 79% 29.40 in - ESE 10.4 mph - 0.00 in Snow Light Snow
5:54 AM 1.0 °F -10.3 °F -4.0 °F 79% 29.50 in - East 5.8 mph - 0.00 in Snow Light Snow
6:06 AM 1.0 °F -11.7 °F -4.0 °F 79% 29.39 in - East 6.9 mph - 0.00 in Snow Light Snow
6:46 AM 1.9 °F -12.9 °F -4.0 °F 76% 29.37 in - ESE 9.2 mph - 0.00 in Snow Light Snow
6:54 AM 1.9 °F -12.9 °F -2.9 °F 80% 29.47 in - SE 9.2 mph - 0.00 in Snow Light Snow
7:54 AM 1.9 °F -11.8 °F -2.9 °F 80% 29.43 in - SE 8.1 mph - 0.00 in Snow Light Snow
8:54 AM 1.9 °F -10.6 °F -2.0 °F 83% 29.44 in - South 6.9 mph - 0.00 in Snow Light Snow
9:54 AM 3.0 °F -11.5 °F -2.0 °F 80% 29.39 in - South 9.2 mph - 0.01 in Snow Light Snow
10:34 AM 5.0 °F -9.1 °F -0.9 °F 76% 29.29 in - SSW 9.2 mph - 0.00 in   Overcast
10:54 AM 5.0 °F -6.9 °F -0.0 °F 80% 29.39 in - SW 6.9 mph - 0.00 in   Overcast
11:37 AM 6.1 °F -9.5 °F 1.9 °F 83% 29.30 in - West 11.5 mph - 0.00 in Snow Light Snow
11:54 AM 7.0 °F -7.5 °F 3.0 °F 84% 29.38 in - West 10.4 mph - 0.00 in Snow Light Snow
12:07 PM 8.1 °F -7.7 °F 1.9 °F 76% 29.28 in - West 12.7 mph - 0.00 in Snow Light Snow
12:49 PM 10.4 °F -6.6 °F 3.2 °F 73% 29.28 in - West 16.1 mph 24.2 mph 0.00 in   Overcast
12:54 PM 10.0 °F -8.1 °F 3.0 °F 73% 29.37 in - West 18.4 mph 26.5 mph 0.00 in   Overcast
1:54 PM 12.0 °F -3.4 °F 5.0 °F 73% 29.36 in - WNW 13.8 mph 27.6 mph 0.00 in Snow Light Snow
2:54 PM 12.0 °F -6.9 °F 3.9 °F 70% 29.42 in - WNW 21.9 mph 29.9 mph 0.00 in Snow Light Snow
3:33 PM 10.9 °F -7.9 °F 3.9 °F 73% 29.34 in - NW 20.7 mph 27.6 mph 0.00 in Snow Light Snow
3:54 PM 10.9 °F -4.1 °F 3.0 °F 70% 29.43 in - NW 12.7 mph 21.9 mph 0.00 in   Overcast
4:36 PM 10.9 °F -1.8 °F 5.0 °F 77% 29.36 in - WNW 9.2 mph - 0.00 in Snow Light Snow
4:54 PM 10.0 °F -1.9 °F 5.0 °F 80% 29.46 in - WNW 8.1 mph - 0.00 in   Overcast
5:25 PM 10.9 °F -7.9 °F 5.0 °F 77% 29.40 in - WNW 20.7 mph 27.6 mph 0.00 in Snow Light Snow
5:54 PM 9.0 °F -13.0 °F 3.0 °F 77% 29.51 in - NW 27.6 mph 33.4 mph 0.00 in Snow Light Snow
6:36 PM 8.1 °F -10.7 °F 1.9 °F 76% 29.46 in - WNW 18.4 mph 32.2 mph 0.00 in Snow Light Snow
6:54 PM 7.0 °F -15.6 °F 1.0 °F 77% 29.58 in - NW 27.6 mph 33.4 mph 0.00 in Snow Light Snow
7:38 PM 5.0 °F -15.7 °F -0.9 °F 76% 29.53 in - NW 20.7 mph - 0.00 in Snow Light Snow
7:46 PM 5.0 °F -17.5 °F -0.0 °F 80% 29.54 in - NW 25.3 mph 34.5 mph 0.00 in Snow Light Snow
7:54 PM 3.9 °F -19.8 °F -2.0 °F 76% 29.65 in - NW 27.6 mph 34.5 mph 0.00 in Snow Light Snow
8:11 PM 3.9 °F -19.0 °F -2.9 °F 73% 29.56 in - NW 25.3 mph 34.5 mph 0.00 in   Overcast
8:54 PM 3.0 °F -19.7 °F -2.9 °F 76% 29.70 in - NW 24.2 mph 34.5 mph 0.00 in Snow Light Snow
9:01 PM 3.0 °F -19.3 °F -2.9 °F 76% 29.61 in - NW 23.0 mph - 0.00 in Snow Light Snow
9:18 PM 1.9 °F -22.0 °F -4.0 °F 76% 29.63 in - NW 26.5 mph 36.8 mph 0.00 in Snow Light Snow
9:54 PM 1.0 °F -23.2 °F -7.1 °F 69% 29.77 in - NW 26.5 mph 38.0 mph 0.00 in   Mostly Cloudy
10:54 PM -0.9 °F -25.5 °F -9.0 °F 69% 29.83 in - NW 25.3 mph 32.2 mph 0.00 in   Partly Cloudy
11:44 PM -2.0 °F -25.0 °F -9.9 °F 69% 29.77 in - NW 20.7 mph 32.2 mph 0.00 in   Mostly Cloudy
11:54 PM -2.0 °F -26.0 °F -11.0 °F 66% 29.88 in - NW 23.0 mph 28.8 mph 0.00 in   Mostly Cloudy